Casablanca, Morocco

2:41 AM WEST on May 01, 2017 (GMT +0100)
Casablanca

Weather History for GMMC - January, 2014

Change the Weather History Date:

Tuesday, January 14, 2014

  Actual Average (GMMN) Record (GMMN)
Temperature  
Mean Temperature 56 °F -  
Max Temperature 63 °F 62 °F 79 °F (2016)
Min Temperature 48 °F 42 °F 33 °F (2009)
Degree Days  
Heating Degree Days 10    
Growing Degree Days 6 (Base 50)    
Moisture  
Dew Point 47 °F    
Average Humidity 76    
Maximum Humidity 94    
Minimum Humidity 42    
Precipitation  
Precipitation 0.00 in 0.08 in - ()
Sea Level Pressure  
Sea Level Pressure 30.28 in    
Wind  
Wind Speed 3 mph ()    
Max Wind Speed 5 mph    
Max Gust Speed -    
Visibility 5.5 miles    
Events      
Averages and records for this station are not official NWS values.
T = Trace of Precipitation, MM = Missing Value Source: Averaged Metar Reports

Daily Weather History Graph

Daily Weather History Graph

Search for Another Location

Airport or City:

Trip Planner

Search our weather history database for the weather conditions in past years. The results will help you decide how hot, cold, wet, or windy it might be!

Date:

Astronomy

Jan. 14, 2014 Rise Set
Actual Time 7:35 AM WET 5:44 PM WET
Civil Twilight 7:08 AM WET 6:11 PM WET
Nautical Twilight 6:37 AM WET 6:42 PM WET
Astronomical Twilight 6:07 AM WET 7:12 PM WET
Moon 4:36 PM WET (1/14) 6:00 AM WET (1/14)
Length of Visible Light 11h 03m
Length of Day
10h 09m
Waxing Gibbous, 97% of the Moon is Illuminated
Jan 14
Waxing Gibbous
Jan 16
Full
Jan 24
Last Quarter
Jan 30
New
Feb 6
First Quarter

Hourly Weather History & Observations

Time (WET) Temp. Dew Point Humidity Pressure Visibility Wind Dir Wind Speed Gust Speed Precip Events Conditions
12:00 AM 52 °F 51 °F 93% 30.33 in 5 mi SSW 2.3 mph - -   Partly Cloudy
12:00 AM - - N/A% 30.30 in 5.0 mi SSW 2.3 mph - N/A   Partly Cloudy
1:00 AM 51.8 °F 50.0 °F 94% 30.30 in 5.0 mi South 3.5 mph - N/A   Scattered Clouds
2:00 AM 51.8 °F 50.0 °F 94% 30.30 in 5.0 mi South 2.3 mph - N/A   Scattered Clouds
3:00 AM 50 °F 49 °F 93% 30.32 in 5 mi South 2.3 mph - -   Partly Cloudy
3:00 AM 50.0 °F 48.2 °F 94% 30.27 in 5.0 mi South 2.3 mph - N/A   Scattered Clouds
4:00 AM 50.0 °F 48.2 °F 94% 30.27 in 5.0 mi SSW 3.5 mph - N/A   Scattered Clouds
5:00 AM 50.0 °F 48.2 °F 94% 30.27 in 5.0 mi South 2.3 mph - N/A   Scattered Clouds
6:00 AM 49 °F 47 °F 91% 30.29 in 5 mi SSW 3.5 mph - -   Partly Cloudy
6:00 AM 48.2 °F 46.4 °F 93% 30.24 in 5.0 mi SSW 3.5 mph - N/A   Scattered Clouds
7:00 AM 48.2 °F 46.4 °F 93% 30.27 in 5.0 mi SSW 3.5 mph - N/A   Scattered Clouds
8:00 AM 48.2 °F 44.6 °F 87% 30.30 in 5.0 mi SSW 4.6 mph - N/A   Partly Cloudy
9:00 AM 50 °F 46 °F 81% 30.32 in 5 mi SSW 4.6 mph - -  
9:00 AM 50.0 °F 46.4 °F 87% 30.30 in 5.0 mi SSW 4.6 mph - N/A   Unknown
10:00 AM 55.4 °F 48.2 °F 77% 30.30 in 5.0 mi South 4.6 mph - N/A   Unknown
11:00 AM 60.8 °F 48.2 °F 63% 30.33 in 5.0 mi SSW 4.6 mph - N/A   Unknown
12:00 PM 62 °F 47 °F 47% 30.32 in 6 mi SE 2.3 mph - -   Scattered Clouds
12:00 PM 62.6 °F 46.4 °F 55% 30.30 in 6.2 mi SE 2.3 mph - N/A   Scattered Clouds
1:00 PM 62.6 °F 46.4 °F 55% 30.30 in 6.2 mi SW 2.3 mph - N/A   Scattered Clouds
2:00 PM 64.4 °F 46.4 °F 52% 30.30 in 6.2 mi WSW 2.3 mph - N/A   Scattered Clouds
3:00 PM 63 °F 46 °F 42% 30.28 in 6 mi WNW 3.5 mph - -   Partly Cloudy
3:00 PM 62.6 °F 46.4 °F 55% 30.27 in 6.2 mi WNW 3.5 mph - N/A   Scattered Clouds
4:00 PM 60.8 °F 46.4 °F 59% 30.27 in 6.2 mi West 3.5 mph - N/A   Partly Cloudy
5:00 PM 60.8 °F 46.4 °F 59% 30.27 in 6.2 mi West 3.5 mph - N/A   Partly Cloudy
6:00 PM 58 °F 47 °F 59% 30.27 in 6 mi NW 3.5 mph - -   Scattered Clouds
6:00 PM 59.0 °F 48.2 °F 67% 30.27 in 6.2 mi NW 3.5 mph - N/A   Partly Cloudy
7:00 PM 57.2 °F 48.2 °F 72% 30.27 in 6.2 mi NW 2.3 mph - N/A   Partly Cloudy
8:00 PM 55.4 °F 48.2 °F 77% 30.27 in - SSW 2.3 mph - N/A   Clear
9:00 PM 53 °F 47 °F 75% 30.27 in 6 mi Calm Calm - -  
9:00 PM 53.6 °F 48.2 °F 82% 30.24 in - Calm Calm - N/A   Clear
10:00 PM 53.6 °F 48.2 °F 82% 30.24 in - South 3.5 mph - N/A   Clear
11:00 PM 53.6 °F 48.2 °F 82% 30.24 in - SSW 3.5 mph - N/A   Clear